Location: Shenandoah County Park
(38.9356°N, 78.4524°W)
Time: 06:21:16
(UTC-04:00)

Vanguard 1 Rocket - Pass Details

Date: 12 February 2023
Orbit: 652 x 4223 km, 34.3° (Epoch: 26 March)

Event Time Altitude Azimuth Distance (km) Brightness Sun altitude
Rises 16:17:33 0° 279° (W) 5,500 12.2 15.1°
Reaches altitude 10° 16:20:51 10° 272° (W) 4,901 12.2 14.5°
Maximum altitude 16:34:39 40° 210° (SSW) 4,300 11.8 12.2°
Drops below altitude 10° 16:56:08 10° 150° (SSE) 7,380 12.0 8.5°
Sets 17:02:49 0° 144° (SE) 8,454 12.2 7.3°
